Charleston, WV

10:54 AM EDT on May 27, 2018 (GMT -0400)
Yeager Airport

Weather History for KCRW - December, 2012

Change the Weather History Date:

Thursday, December 13, 2012

  Actual Average Record
Temperature  
Mean Temperature 37 °F 38 °F  
Max Temperature 50 °F 46 °F 72 °F (1929)
Min Temperature 24 °F 30 °F 0 °F (1962)
Degree Days  
Heating Degree Days 28 27  
Month to date heating degree days 210 332  
Since 1 July heating degree days 1249 1216  
Cooling Degree Days 0 0  
Month to date cooling degree days 0 0  
Year to date cooling degree days 1348 1096  
Moisture  
Dew Point 24 °F    
Average Humidity 62    
Maximum Humidity 92    
Minimum Humidity 32    
Precipitation  
Precipitation 0.00 in 0.10 in 1.12 in (1935)
Month to date precipitation 2.39 1.44  
Year to date precipitation 39.01 42.20  
Snow  
Snow 0.00 in 0.20 in 2.50 in (1937)
Month to date snowfall 0.0 2.1  
Since 1 September snowfall 10.1 3.5  
Snow Depth 0.00 in    
Sea Level Pressure  
Sea Level Pressure 30.37 in    
Wind  
Wind Speed 0 mph (SSE)    
Max Wind Speed 7 mph    
Max Gust Speed 8 mph    
Visibility 5 miles    
Events Fog    
T = Trace of Precipitation, MM = Missing Value Source: NWS Daily Summary

Daily Weather History Graph

Daily Weather History Graph

Search for Another Location

Airport or City:

Astronomy

Dec. 13, 2012 Rise Set
Actual Time 7:35 AM EST 5:06 PM EST
Civil Twilight 7:05 AM EST 5:36 PM EST
Nautical Twilight 6:32 AM EST 6:09 PM EST
Astronomical Twilight 6:00 AM EST 6:41 PM EST
Moon 7:42 AM EST (12/13) 5:47 PM EST (12/13)
Length of Visible Light 10h 30m
Length of Day
9h 31m
New Moon, 0% of the Moon is Illuminated
Dec 13
New Moon
Dec 20
First Quarter
Dec 28
Full
Jan 4
Last Quarter
Jan 11
New

Hourly Weather History & Observations

Time (EST) Temp. Windchill Dew Point Humidity Pressure Visibility Wind Dir Wind Speed Gust Speed Precip Events Conditions
12:10 AM 28.4 °F - 24.8 °F 86% 30.34 in 0.2 mi Calm Calm - N/A Fog Light Freezing Fog
12:32 AM 26.6 °F 22.6 °F 24.8 °F 93% 30.35 in 1.5 mi SSE 3.5 mph - N/A   Scattered Clouds
12:54 AM 26.1 °F - 24.1 °F 92% 30.38 in 1.5 mi Calm Calm - N/A   Scattered Clouds
1:54 AM 25.0 °F - 23.0 °F 92% 30.38 in 1.5 mi Calm Calm - N/A   Partly Cloudy
2:03 AM 24.8 °F - 23.0 °F 93% 30.35 in 4.0 mi Calm Calm - N/A   Partly Cloudy
2:54 AM 24.1 °F - 21.9 °F 91% 30.39 in 6.0 mi Calm Calm - N/A   Partly Cloudy
3:33 AM 26.6 °F - 23.0 °F 86% 30.37 in 0.2 mi Calm Calm - N/A Fog Light Freezing Fog
3:54 AM 26.1 °F 21.9 °F 21.9 °F 84% 30.40 in 0.2 mi SSE 3.5 mph - N/A Fog Light Freezing Fog
4:33 AM 26.6 °F - 21.2 °F 80% 30.36 in 4.0 mi Calm Calm - N/A   Partly Cloudy
4:54 AM 26.1 °F - 21.9 °F 84% 30.39 in 0.2 mi Calm Calm - N/A Fog Light Freezing Fog
5:26 AM 26.6 °F - 21.2 °F 80% 30.35 in 1.0 mi Calm Calm - N/A   Partly Cloudy
5:36 AM 26.6 °F - 21.2 °F 80% 30.36 in 4.0 mi Calm Calm - N/A   Partly Cloudy
5:54 AM 26.1 °F - 21.9 °F 84% 30.39 in 0.2 mi Calm Calm - N/A Fog Light Freezing Fog
6:54 AM 28.4 °F - 26.6 °F 93% 30.40 in 0.2 mi Calm Calm - N/A Fog Light Freezing Fog
7:27 AM 26.6 °F - 21.2 °F 80% 30.40 in 4.0 mi Calm Calm - N/A   Scattered Clouds
7:54 AM 26.1 °F - 21.9 °F 84% 30.43 in 8.0 mi Calm Calm - N/A   Partly Cloudy
8:40 AM 28.4 °F - 23.0 °F 80% 30.40 in 0.8 mi Calm Calm - 0.00 in   Mostly Cloudy
8:54 AM 28.9 °F - 23.0 °F 78% 30.44 in 0.2 mi Calm Calm - 0.00 in Fog Light Freezing Fog
9:30 AM 28.4 °F - 24.8 °F 86% 30.41 in 1.0 mi Calm Calm - N/A   Scattered Clouds
9:54 AM 28.9 °F - 25.0 °F 85% 30.44 in 4.0 mi Calm Calm - N/A   Partly Cloudy
10:54 AM 32.0 °F - 28.0 °F 85% 30.43 in 9.0 mi Calm Calm - N/A   Clear
11:54 AM 37.9 °F - 28.9 °F 70% 30.41 in 10.0 mi Calm Calm - N/A   Clear
12:54 PM 45.0 °F - 28.9 °F 53% 30.37 in 10.0 mi Calm Calm - N/A   Clear
1:54 PM 48.9 °F - 24.1 °F 38% 30.35 in 10.0 mi Calm Calm - N/A   Clear
2:54 PM 50.0 °F - 21.9 °F 33% 30.34 in 10.0 mi Calm Calm - N/A   Clear
3:54 PM 50.0 °F - 21.9 °F 33% 30.33 in 10.0 mi Calm Calm - N/A   Clear
4:54 PM 48.9 °F - 21.0 °F 33% 30.33 in 10.0 mi Calm Calm - N/A   Clear
7:54 PM 35.6 °F - 26.6 °F 70% 30.31 in 10.0 mi Calm Calm - N/A   Clear
8:54 PM 32.0 °F - 26.1 °F 79% 30.33 in 10.0 mi Calm Calm - N/A   Clear
9:54 PM 32.0 °F - 26.1 °F 79% 30.32 in 10.0 mi Calm Calm - N/A   Clear
10:54 PM 30.0 °F - 25.0 °F 82% 30.32 in 10.0 mi Calm Calm - N/A   Clear
11:54 PM 28.9 °F - 25.0 °F 85% 30.32 in 7.0 mi Calm Calm - N/A   Clear